TimeCST,TemperatureF,Dew PointF,Humidity,Sea Level PressureIn,VisibilityMPH,Wind Direction,Wind SpeedMPH,Gust SpeedMPH,PrecipitationIn,Events,Conditions,WindDirDegrees,DateUTC
12:53 AM,25.0,18.0,75,29.98,10.0,WNW,5.8,-,N/A,,Clear,300,2013-01-19 06:53:00
1:53 AM,23.0,17.1,78,29.98,10.0,West,6.9,-,N/A,,Clear,280,2013-01-19 07:53:00
2:53 AM,23.0,18.0,81,29.99,10.0,WNW,6.9,-,N/A,,Clear,300,2013-01-19 08:53:00
3:53 AM,24.1,18.0,77,30.00,10.0,NW,8.1,-,N/A,,Clear,320,2013-01-19 09:53:00
4:53 AM,21.9,16.0,78,30.03,10.0,WNW,6.9,-,N/A,,Clear,290,2013-01-19 10:53:00
5:53 AM,21.0,16.0,81,30.08,10.0,WNW,9.2,-,N/A,,Clear,300,2013-01-19 11:53:00
6:53 AM,21.0,15.1,78,30.13,10.0,WNW,8.1,-,N/A,,Clear,300,2013-01-19 12:53:00
7:53 AM,25.0,17.1,72,30.15,10.0,West,6.9,-,N/A,,Clear,260,2013-01-19 13:53:00
8:53 AM,25.0,18.0,75,30.18,10.0,WNW,4.6,-,N/A,,Clear,290,2013-01-19 14:53:00
9:53 AM,37.0,25.0,62,30.20,10.0,WNW,6.9,-,N/A,,Clear,290,2013-01-19 15:53:00
10:53 AM,45.0,21.9,40,30.21,10.0,West,12.7,-,N/A,,Clear,280,2013-01-19 16:53:00
11:53 AM,53.1,21.0,29,30.17,10.0,West,9.2,-,N/A,,Clear,280,2013-01-19 17:53:00
12:53 PM,55.9,19.0,24,30.16,10.0,WNW,16.1,24.2,N/A,,Clear,300,2013-01-19 18:53:00
1:53 PM,55.9,18.0,23,30.16,10.0,NW,24.2,28.8,N/A,,Clear,310,2013-01-19 19:53:00
2:53 PM,55.9,18.0,23,30.16,10.0,NW,17.3,-,N/A,,Clear,310,2013-01-19 20:53:00
3:53 PM,55.0,18.0,23,30.17,10.0,NNW,11.5,-,N/A,,Clear,340,2013-01-19 21:53:00
4:53 PM,53.1,19.0,26,30.19,10.0,NNW,10.4,-,N/A,,Clear,330,2013-01-19 22:53:00
5:53 PM,45.0,19.0,36,30.24,10.0,North,5.8,-,N/A,,Clear,350,2013-01-19 23:53:00
6:53 PM,36.0,21.9,57,30.28,10.0,NE,5.8,-,N/A,,Clear,40,2013-01-20 00:53:00
7:53 PM,36.0,23.0,59,30.29,10.0,NNE,12.7,-,N/A,,Clear,20,2013-01-20 01:53:00
8:53 PM,32.0,21.9,66,30.32,10.0,SE,3.5,-,N/A,,Clear,140,2013-01-20 02:53:00
9:53 PM,30.0,21.9,72,30.32,10.0,ENE,8.1,-,N/A,,Clear,70,2013-01-20 03:53:00
10:53 PM,27.0,21.0,78,30.30,10.0,East,4.6,-,N/A,,Clear,80,2013-01-20 04:53:00
11:53 PM,25.0,21.0,85,30.29,10.0,Calm,Calm,-,N/A,,Clear,0,2013-01-20 05:53:00